Kezdőlap
METAR-TAF:

METAR-TAF

Repülőterek :

South Wood County Airport (Alexander Field)

Wisconsin Rapids, Wisconsin, Amerikai Egyesült Államok

földrajzi szélesség: 44-21-33N, földrajzi hosszúság: 089-50-13W, magasság: 311 m

Jelenlegi meteorológiai megfigyelések

A jelentés 1 órával és 4 perccel ezelõtt készült, 06:54 UTC
Kelet-délkeleti szél 4 kt
Hőmérséklet 18°C
Páratartalom 94%
Légköri nyomás 1018 hPa
Látótávolság: 16.1 km
Kevés felhő 4300 lábon

METAR: KISW 070654Z AUTO 12004KT 10SM FEW043 18/17 A3005 RMK AO2 SLP170 T01830172

Idő: 02:58 (07:58 UTC)


TAF: hiányzik

Meteorológiai megfigyelések és előrejelzések több, mint 4000 repülőtéren (METAR és TAF jelentéseket).

A térképen piros és sárga pontok jelzik az elérhető meteorológiai állomásokat.

Mozgassa az egeret a pont fölött, hogy megjelenjen az állomás neve.

Azután kattintson az időjárási megfigyelések és előrejelzések megtekintéséhez.

A térkép megváltoztatása: kattintson a fekete keresztel jelölt zöld gombra ráközelítéshez, a vonallal jelölt zöld gombra távolításhoz, vagy a zöld nyilakra a szomszédos térképek eléréséhez.


METAR-TAF: